owner,sensor,date,latitude,longitude,vertical_datum,wind_speed,wind_to_direction,wind_speed_of_gust,qcFlag 
DISL,ioos:station:DISL:MHPA:1,2011-01-01T06:30:00Z,30.6671,-87.9365,8.5,9.03,151.9,-9999.0,'1111122,1111122,1111122' 
DISL,ioos:station:DISL:MHPA:1,2011-01-01T07:00:00Z,30.6671,-87.9365,8.5,8.81,157.8,-9999.0,'1111122,1111122,1111122' 
DISL,ioos:station:DISL:MHPA:1,2011-01-01T07:30:00Z,30.6671,-87.9365,8.5,9.87,157.4,-9999.0,'1111122,1111122,1111122' 
DISL,ioos:station:DISL:MHPA:1,2011-01-01T08:00:00Z,30.6671,-87.9365,8.5,9.14,163.7,-9999.0,'1111122,1111122,1111122' 
DISL,ioos:station:DISL:MHPA:1,2011-01-01T08:30:00Z,30.6671,-87.9365,8.5,9.37,163.9,-9999.0,'1111122,1111122,1111122' 
DISL,ioos:station:DISL:MHPA:1,2011-01-01T09:00:00Z,30.6671,-87.9365,8.5,8.67,156.8,-9999.0,'1111122,1111122,1111122' 
DISL,ioos:station:DISL:MHPA:1,2011-01-01T09:30:00Z,30.6671,-87.9365,8.5,8.58,161.1,-9999.0,'1111122,1111122,1111122' 
DISL,ioos:station:DISL:MHPA:1,2011-01-01T10:00:00Z,30.6671,-87.9365,8.5,8.79,160.0,-9999.0,'1111122,1111122,1111122' 
DISL,ioos:station:DISL:MHPA:1,2011-01-01T10:30:00Z,30.6671,-87.9365,8.5,8.69,161.0,-9999.0,'1111122,1111122,1111122' 
DISL,ioos:station:DISL:MHPA:1,2011-01-01T11:00:00Z,30.6671,-87.9365,8.5,7.35,173.0,-9999.0,'1111122,1111122,1111122' 
DISL,ioos:station:DISL:MHPA:1,2011-01-01T11:30:00Z,30.6671,-87.9365,8.5,8.44,162.2,-9999.0,'1111122,1111122,1111122' 
DISL,ioos:station:DISL:MHPA:1,2011-01-01T12:00:00Z,30.6671,-87.9365,8.5,7.99,162.0,-9999.0,'1111122,1111122,1111122' 
DISL,ioos:station:DISL:MHPA:1,2011-01-01T12:30:00Z,30.6671,-87.9365,8.5,7.85,159.9,-9999.0,'1111122,1111122,1111122' 
DISL,ioos:station:DISL:MHPA:1,2011-01-01T13:00:00Z,30.6671,-87.9365,8.5,7.29,159.3,-9999.0,'1111122,1111122,1111122' 
DISL,ioos:station:DISL:MHPA:1,2011-01-01T13:30:00Z,30.6671,-87.9365,8.5,7.15,163.6,-9999.0,'1111122,1111122,1111122' 
DISL,ioos:station:DISL:MHPA:1,2011-01-01T14:00:00Z,30.6671,-87.9365,8.5,7.34,167.7,-9999.0,'1111122,1111122,1111122' 
DISL,ioos:station:DISL:MHPA:1,2011-01-01T14:30:00Z,30.6671,-87.9365,8.5,8.62,166.3,-9999.0,'1111122,1111122,1111122' 
DISL,ioos:station:DISL:MHPA:1,2011-01-01T15:00:00Z,30.6671,-87.9365,8.5,8.56,170.5,-9999.0,'1111122,1111122,1111122' 
DISL,ioos:station:DISL:MHPA:1,2011-01-01T15:30:00Z,30.6671,-87.9365,8.5,6.27,182.8,-9999.0,'1111122,1111122,1111122' 
DISL,ioos:station:DISL:MHPA:1,2011-01-01T16:00:00Z,30.6671,-87.9365,8.5,5.7,198.9,-9999.0,'1111122,1111122,1111122' 
DISL,ioos:station:DISL:MHPA:1,2011-01-01T16:30:00Z,30.6671,-87.9365,8.5,6.07,200.2,-9999.0,'1111122,1111122,1111122' 
DISL,ioos:station:DISL:MHPA:1,2011-01-01T17:00:00Z,30.6671,-87.9365,8.5,5.86,187.5,-9999.0,'1111122,1111122,1111122' 
DISL,ioos:station:DISL:MHPA:1,2011-01-01T17:30:00Z,30.6671,-87.9365,8.5,5.98,178.5,-9999.0,'1111122,1111122,1111122' 
DISL,ioos:station:DISL:MHPA:1,2011-01-01T18:00:00Z,30.6671,-87.9365,8.5,3.9,178.9,-9999.0,'1111122,1111122,1111122' 
DISL,ioos:station:DISL:MHPA:1,2011-01-01T18:30:00Z,30.6671,-87.9365,8.5,5.12,193.1,-9999.0,'1111122,1111122,1111122' 
DISL,ioos:station:DISL:MHPA:1,2011-01-01T19:00:00Z,30.6671,-87.9365,8.5,3.33,349.1,-9999.0,'1111122,1111122,1111122' 
DISL,ioos:station:DISL:MHPA:1,2011-01-01T19:30:00Z,30.6671,-87.9365,8.5,2.7,1.11,-9999.0,'1111122,1111122,1111122' 
DISL,ioos:station:DISL:MHPA:1,2011-01-01T20:00:00Z,30.6671,-87.9365,8.5,2.95,19.88,-9999.0,'1111122,1111122,1111122' 
DISL,ioos:station:DISL:MHPA:1,2011-01-01T20:30:00Z,30.6671,-87.9365,8.5,3.52,341.8,-9999.0,'1111122,1111122,1111122' 
DISL,ioos:station:DISL:MHPA:1,2011-01-01T21:00:00Z,30.6671,-87.9365,8.5,4.92,347.4,-9999.0,'1111122,1111122,1111122' 
DISL,ioos:station:DISL:MHPA:1,2011-01-01T21:30:00Z,30.6671,-87.9365,8.5,5.12,0.814,-9999.0,'1111122,1111122,1111122' 
DISL,ioos:station:DISL:MHPA:1,2011-01-01T22:00:00Z,30.6671,-87.9365,8.5,5.48,343.4,-9999.0,'1111122,1111122,1111122' 
DISL,ioos:station:DISL:MHPA:1,2011-01-01T22:30:00Z,30.6671,-87.9365,8.5,5.35,6.221,-9999.0,'1111122,1111122,1111122' 
DISL,ioos:station:DISL:MHPA:1,2011-01-01T23:00:00Z,30.6671,-87.9365,8.5,4.95,7.36,-9999.0,'1111122,1111122,1111122' 
DISL,ioos:station:DISL:MHPA:1,2011-01-01T23:30:00Z,30.6671,-87.9365,8.5,4.48,5.403,-9999.0,'1111122,1111122,1111122' 
DISL,ioos:station:DISL:MHPA:1,2011-01-02T00:00:00Z,30.6671,-87.9365,8.5,3.09,13.14,-9999.0,'1111122,1111122,1111122' 
DISL,ioos:station:DISL:MHPA:1,2011-01-02T00:30:00Z,30.6671,-87.9365,8.5,2.64,24.1,-9999.0,'1111122,1111122,1111122' 
DISL,ioos:station:DISL:MHPA:1,2011-01-02T01:00:00Z,30.6671,-87.9365,8.5,3.64,359.2,-9999.0,'1111122,1111122,1111122' 
DISL,ioos:station:DISL:MHPA:1,2011-01-02T01:30:00Z,30.6671,-87.9365,8.5,3.48,9.31,-9999.0,'1111122,1111122,1111122' 
DISL,ioos:station:DISL:MHPA:1,2011-01-02T02:00:00Z,30.6671,-87.9365,8.5,3.24,343.4,-9999.0,'1111122,1111122,1111122' 
DISL,ioos:station:DISL:MHPA:1,2011-01-02T02:30:00Z,30.6671,-87.9365,8.5,4.55,351.3,-9999.0,'1111122,1111122,1111122' 
DISL,ioos:station:DISL:MHPA:1,2011-01-02T03:00:00Z,30.6671,-87.9365,8.5,4.75,358.3,-9999.0,'1111122,1111122,1111122' 
DISL,ioos:station:DISL:MHPA:1,2011-01-02T03:30:00Z,30.6671,-87.9365,8.5,4.07,11.88,-9999.0,'1111122,1111122,1111122' 
DISL,ioos:station:DISL:MHPA:1,2011-01-02T04:00:00Z,30.6671,-87.9365,8.5,3.8,6.661,-9999.0,'1111122,1111122,1111122' 
DISL,ioos:station:DISL:MHPA:1,2011-01-02T04:30:00Z,30.6671,-87.9365,8.5,2.31,14.48,-9999.0,'1111122,1111122,1111122' 
DISL,ioos:station:DISL:MHPA:1,2011-01-02T05:00:00Z,30.6671,-87.9365,8.5,2.73,3.698,-9999.0,'1111122,1111122,1111122' 
DISL,ioos:station:DISL:MHPA:1,2011-01-02T05:30:00Z,30.6671,-87.9365,8.5,4.02,8.78,-9999.0,'1111122,1111122,1111122' 
DISL,ioos:station:DISL:MHPA:1,2011-01-02T06:00:00Z,30.6671,-87.9365,8.5,4.01,352.0,-9999.0,'1111122,1111122,1111122' 
DISL,ioos:station:DISL:MHPA:1,2011-01-02T06:30:00Z,30.6671,-87.9365,8.5,4.88,351.7,-9999.0,'1111122,1111122,1111122' 
DISL,ioos:station:DISL:MHPA:1,2011-01-02T07:00:00Z,30.6671,-87.9365,8.5,5.1,358.3,-9999.0,'1111122,1111122,1111122' 
DISL,ioos:station:DISL:MHPA:1,2011-01-02T07:30:00Z,30.6671,-87.9365,8.5,4.32,353.6,-9999.0,'1111122,1111122,1111122' 
DISL,ioos:station:DISL:MHPA:1,2011-01-02T08:00:00Z,30.6671,-87.9365,8.5,2.93,2.176,-9999.0,'1111122,1111122,1111122' 
DISL,ioos:station:DISL:MHPA:1,2011-01-02T08:30:00Z,30.6671,-87.9365,8.5,4.03,3.253,-9999.0,'1111122,1111122,1111122' 
DISL,ioos:station:DISL:MHPA:1,2011-01-02T09:00:00Z,30.6671,-87.9365,8.5,3.62,355.8,-9999.0,'1111122,1111122,1111122' 
DISL,ioos:station:DISL:MHPA:1,2011-01-02T09:30:00Z,30.6671,-87.9365,8.5,3.87,346.7,-9999.0,'1111122,1111122,1111122' 
DISL,ioos:station:DISL:MHPA:1,2011-01-02T10:00:00Z,30.6671,-87.9365,8.5,4.18,350.7,-9999.0,'1111122,1111122,1111122' 
DISL,ioos:station:DISL:MHPA:1,2011-01-02T10:30:00Z,30.6671,-87.9365,8.5,5.49,346.7,-9999.0,'1111122,1111122,1111122' 
DISL,ioos:station:DISL:MHPA:1,2011-01-02T11:00:00Z,30.6671,-87.9365,8.5,5.71,349.5,-9999.0,'1111122,1111122,1111122' 
DISL,ioos:station:DISL:MHPA:1,2011-01-02T11:30:00Z,30.6671,-87.9365,8.5,5.41,352.3,-9999.0,'1111122,1111122,1111122' 
DISL,ioos:station:DISL:MHPA:1,2011-01-02T12:00:00Z,30.6671,-87.9365,8.5,4.92,343.7,-9999.0,'1111122,1111122,1111122' 
DISL,ioos:station:DISL:MHPA:1,2011-01-02T12:30:00Z,30.6671,-87.9365,8.5,4.64,341.6,-9999.0,'1111122,1111122,1111122' 
DISL,ioos:station:DISL:MHPA:1,2011-01-02T13:00:00Z,30.6671,-87.9365,8.5,5.05,351.6,-9999.0,'1111122,1111122,1111122' 
DISL,ioos:station:DISL:MHPA:1,2011-01-02T13:30:00Z,30.6671,-87.9365,8.5,5.21,346.9,-9999.0,'1111122,1111122,1111122' 
DISL,ioos:station:DISL:MHPA:1,2011-01-02T14:00:00Z,30.6671,-87.9365,8.5,6.19,348.1,-9999.0,'1111122,1111122,1111122' 
DISL,ioos:station:DISL:MHPA:1,2011-01-02T14:30:00Z,30.6671,-87.9365,8.5,5.18,349.5,-9999.0,'1111122,1111122,1111122' 
DISL,ioos:station:DISL:MHPA:1,2011-01-02T15:00:00Z,30.6671,-87.9365,8.5,6.06,346.7,-9999.0,'1111122,1111122,1111122' 
DISL,ioos:station:DISL:MHPA:1,2011-01-02T15:30:00Z,30.6671,-87.9365,8.5,5.55,350.1,-9999.0,'1111122,1111122,1111122' 
DISL,ioos:station:DISL:MHPA:1,2011-01-02T16:00:00Z,30.6671,-87.9365,8.5,4.89,359.1,-9999.0,'1111122,1111122,1111122' 
DISL,ioos:station:DISL:MHPA:1,2011-01-02T16:30:00Z,30.6671,-87.9365,8.5,5.23,357.3,-9999.0,'1111122,1111122,1111122' 
DISL,ioos:station:DISL:MHPA:1,2011-01-02T17:00:00Z,30.6671,-87.9365,8.5,6.4,350.8,-9999.0,'1111122,1111122,1111122' 
DISL,ioos:station:DISL:MHPA:1,2011-01-02T17:30:00Z,30.6671,-87.9365,8.5,4.93,5.154,-9999.0,'1111122,1111122,1111122' 
DISL,ioos:station:DISL:MHPA:1,2011-01-02T18:00:00Z,30.6671,-87.9365,8.5,4.95,5.176,-9999.0,'1111122,1111122,1111122' 
DISL,ioos:station:DISL:MHPA:1,2011-01-02T18:30:00Z,30.6671,-87.9365,8.5,5.8,355.3,-9999.0,'1111122,1111122,1111122' 
DISL,ioos:station:DISL:MHPA:1,2011-01-02T19:00:00Z,30.6671,-87.9365,8.5,4.56,355.0,-9999.0,'1111122,1111122,1111122' 
DISL,ioos:station:DISL:MHPA:1,2011-01-02T19:30:00Z,30.6671,-87.9365,8.5,6.52,336.4,-9999.0,'1111122,1111122,1111122' 
DISL,ioos:station:DISL:MHPA:1,2011-01-02T20:00:00Z,30.6671,-87.9365,8.5,6.17,347.0,-9999.0,'1111122,1111122,1111122' 
DISL,ioos:station:DISL:MHPA:1,2011-01-02T20:30:00Z,30.6671,-87.9365,8.5,5.74,355.9,-9999.0,'1111122,1111122,1111122' 
DISL,ioos:station:DISL:MHPA:1,2011-01-02T21:00:00Z,30.6671,-87.9365,8.5,6.42,346.0,-9999.0,'1111122,1111122,1111122' 
DISL,ioos:station:DISL:MHPA:1,2011-01-02T21:30:00Z,30.6671,-87.9365,8.5,4.48,0.277,-9999.0,'1111122,1111122,1111122' 
DISL,ioos:station:DISL:MHPA:1,2011-01-02T22:00:00Z,30.6671,-87.9365,8.5,4.97,352.2,-9999.0,'1111122,1111122,1111122' 
DISL,ioos:station:DISL:MHPA:1,2011-01-02T22:30:00Z,30.6671,-87.9365,8.5,4.23,342.6,-9999.0,'1111122,1111122,1111122' 
DISL,ioos:station:DISL:MHPA:1,2011-01-02T23:00:00Z,30.6671,-87.9365,8.5,4.38,345.4,-9999.0,'1111122,1111122,1111122' 
DISL,ioos:station:DISL:MHPA:1,2011-01-02T23:30:00Z,30.6671,-87.9365,8.5,2.97,354.1,-9999.0,'1111122,1111122,1111122' 
DISL,ioos:station:DISL:MHPA:1,2011-01-03T00:00:00Z,30.6671,-87.9365,8.5,2.3,3.193,-9999.0,'1111122,1111122,1111122' 
DISL,ioos:station:DISL:MHPA:1,2011-01-03T00:30:00Z,30.6671,-87.9365,8.5,1.66,19.62,-9999.0,'1111122,1111122,1111122' 
DISL,ioos:station:DISL:MHPA:1,2011-01-03T01:00:00Z,30.6671,-87.9365,8.5,2.01,19.62,-9999.0,'1111122,1111122,1111122' 
DISL,ioos:station:DISL:MHPA:1,2011-01-03T01:30:00Z,30.6671,-87.9365,8.5,1.93,13.42,-9999.0,'1111122,1111122,1111122' 
DISL,ioos:station:DISL:MHPA:1,2011-01-03T02:00:00Z,30.6671,-87.9365,8.5,1.81,1.154,-9999.0,'1111122,1111122,1111122' 
DISL,ioos:station:DISL:MHPA:1,2011-01-03T02:30:00Z,30.6671,-87.9365,8.5,1.94,14.48,-9999.0,'1111122,1111122,1111122' 
DISL,ioos:station:DISL:MHPA:1,2011-01-03T03:00:00Z,30.6671,-87.9365,8.5,1.95,19.94,-9999.0,'1111122,1111122,1111122' 
DISL,ioos:station:DISL:MHPA:1,2011-01-03T03:30:00Z,30.6671,-87.9365,8.5,1.82,24.4,-9999.0,'1111122,1111122,1111122' 
DISL,ioos:station:DISL:MHPA:1,2011-01-03T04:00:00Z,30.6671,-87.9365,8.5,1.65,19.35,-9999.0,'1111122,1111122,1111122' 
DISL,ioos:station:DISL:MHPA:1,2011-01-03T04:30:00Z,30.6671,-87.9365,8.5,1.79,9.44,-9999.0,'1111122,1111122,1111122' 
DISL,ioos:station:DISL:MHPA:1,2011-01-03T05:00:00Z,30.6671,-87.9365,8.5,1.61,10.2,-9999.0,'1111122,1111122,1111122' 
DISL,ioos:station:DISL:MHPA:1,2011-01-03T05:30:00Z,30.6671,-87.9365,8.5,1.52,9.9,-9999.0,'1111122,1111122,1111122' 
DISL,ioos:station:DISL:MHPA:1,2011-01-03T06:00:00Z,30.6671,-87.9365,8.5,2.01,13.95,-9999.0,'1111122,1111122,1111122' 
DISL,ioos:station:DISL:MHPA:1,2011-01-03T06:30:00Z,30.6671,-87.9365,8.5,2.16,10.16,-9999.0,'1111122,1111122,1111122' 
DISL,ioos:station:DISL:MHPA:1,2011-01-03T07:00:00Z,30.6671,-87.9365,8.5,2.29,13.11,-9999.0,'1111122,1111122,1111122' 
DISL,ioos:station:DISL:MHPA:1,2011-01-03T07:30:00Z,30.6671,-87.9365,8.5,2.28,23.76,-9999.0,'1111122,1111122,1111122' 
DISL,ioos:station:DISL:MHPA:1,2011-01-03T08:00:00Z,30.6671,-87.9365,8.5,2.54,8.46,-9999.0,'1111122,1111122,1111122' 
DISL,ioos:station:DISL:MHPA:1,2011-01-03T08:30:00Z,30.6671,-87.9365,8.5,2.22,19.77,-9999.0,'1111122,1111122,1111122' 
DISL,ioos:station:DISL:MHPA:1,2011-01-03T09:00:00Z,30.6671,-87.9365,8.5,3.2,4.179,-9999.0,'1111122,1111122,1111122' 
DISL,ioos:station:DISL:MHPA:1,2011-01-03T09:30:00Z,30.6671,-87.9365,8.5,3.7,0.151,-9999.0,'1111122,1111122,1111122' 
DISL,ioos:station:DISL:MHPA:1,2011-01-03T10:00:00Z,30.6671,-87.9365,8.5,2.29,5.787,-9999.0,'1111122,1111122,1111122' 
DISL,ioos:station:DISL:MHPA:1,2011-01-03T10:30:00Z,30.6671,-87.9365,8.5,2.33,14.44,-9999.0,'1111122,1111122,1111122' 
DISL,ioos:station:DISL:MHPA:1,2011-01-03T11:00:00Z,30.6671,-87.9365,8.5,2.41,3.773,-9999.0,'1111122,1111122,1111122' 
DISL,ioos:station:DISL:MHPA:1,2011-01-03T11:30:00Z,30.6671,-87.9365,8.5,1.84,6.551,-9999.0,'1111122,1111122,1111122' 
DISL,ioos:station:DISL:MHPA:1,2011-01-03T12:00:00Z,30.6671,-87.9365,8.5,1.45,4.816,-9999.0,'1111122,1111122,1111122' 
DISL,ioos:station:DISL:MHPA:1,2011-01-03T12:30:00Z,30.6671,-87.9365,8.5,1.01,14.27,-9999.0,'1111122,1111122,1111122' 
DISL,ioos:station:DISL:MHPA:1,2011-01-03T13:00:00Z,30.6671,-87.9365,8.5,1.39,21.51,-9999.0,'1111122,1111122,1111122' 
DISL,ioos:station:DISL:MHPA:1,2011-01-03T13:30:00Z,30.6671,-87.9365,8.5,2.31,23.87,-9999.0,'1111122,1111122,1111122' 
DISL,ioos:station:DISL:MHPA:1,2011-01-03T14:00:00Z,30.6671,-87.9365,8.5,3.16,21.28,-9999.0,'1111122,1111122,1111122' 
DISL,ioos:station:DISL:MHPA:1,2011-01-03T14:30:00Z,30.6671,-87.9365,8.5,3.32,26.31,-9999.0,'1111122,1111122,1111122' 
DISL,ioos:station:DISL:MHPA:1,2011-01-03T15:00:00Z,30.6671,-87.9365,8.5,3.22,31.21,-9999.0,'1111122,1111122,1111122' 
DISL,ioos:station:DISL:MHPA:1,2011-01-03T15:30:00Z,30.6671,-87.9365,8.5,2.45,17.06,-9999.0,'1111122,1111122,1111122' 
DISL,ioos:station:DISL:MHPA:1,2011-01-03T16:00:00Z,30.6671,-87.9365,8.5,2.54,18.71,-9999.0,'1111122,1111122,1111122' 
DISL,ioos:station:DISL:MHPA:1,2011-01-03T16:30:00Z,30.6671,-87.9365,8.5,2.94,19.75,-9999.0,'1111122,1111122,1111122' 
DISL,ioos:station:DISL:MHPA:1,2011-01-03T17:00:00Z,30.6671,-87.9365,8.5,2.59,9.65,-9999.0,'1111122,1111122,1111122' 
DISL,ioos:station:DISL:MHPA:1,2011-01-03T17:30:00Z,30.6671,-87.9365,8.5,3.16,5.586,-9999.0,'1111122,1111122,1111122' 
DISL,ioos:station:DISL:MHPA:1,2011-01-03T18:00:00Z,30.6671,-87.9365,8.5,2.55,7.55,-9999.0,'1111122,1111122,1111122' 
DISL,ioos:station:DISL:MHPA:1,2011-01-03T18:30:00Z,30.6671,-87.9365,8.5,2.09,10.18,-9999.0,'1111122,1111122,1111122' 
DISL,ioos:station:DISL:MHPA:1,2011-01-03T19:00:00Z,30.6671,-87.9365,8.5,1.77,32.34,-9999.0,'1111122,1111122,1111122' 
DISL,ioos:station:DISL:MHPA:1,2011-01-03T19:30:00Z,30.6671,-87.9365,8.5,1.97,16.39,-9999.0,'1111122,1111122,1111122' 
DISL,ioos:station:DISL:MHPA:1,2011-01-03T20:00:00Z,30.6671,-87.9365,8.5,1.92,356.0,-9999.0,'1111122,1111122,1111122' 
DISL,ioos:station:DISL:MHPA:1,2011-01-03T20:30:00Z,30.6671,-87.9365,8.5,3.25,257.3,-9999.0,'1111122,1111122,1111122' 
DISL,ioos:station:DISL:MHPA:1,2011-01-03T21:00:00Z,30.6671,-87.9365,8.5,3.88,266.8,-9999.0,'1111122,1111122,1111122' 
DISL,ioos:station:DISL:MHPA:1,2011-01-03T21:30:00Z,30.6671,-87.9365,8.5,2.7,272.1,-9999.0,'1111122,1111122,1111122' 
DISL,ioos:station:DISL:MHPA:1,2011-01-03T22:00:00Z,30.6671,-87.9365,8.5,1.64,238.1,-9999.0,'1111122,1111122,1111122' 
DISL,ioos:station:DISL:MHPA:1,2011-01-03T22:30:00Z,30.6671,-87.9365,8.5,1.44,222.7,-9999.0,'1111122,1111122,1111122' 
DISL,ioos:station:DISL:MHPA:1,2011-01-03T23:00:00Z,30.6671,-87.9365,8.5,0.18,254.5,-9999.0,'1111122,1111122,1111122' 
DISL,ioos:station:DISL:MHPA:1,2011-01-03T23:30:00Z,30.6671,-87.9365,8.5,0.07,109.7,-9999.0,'1111122,1111122,1111122' 
DISL,ioos:station:DISL:MHPA:1,2011-01-04T00:00:00Z,30.6671,-87.9365,8.5,0.53,46.76,-9999.0,'1111122,1111122,1111122' 
DISL,ioos:station:DISL:MHPA:1,2011-01-04T00:30:00Z,30.6671,-87.9365,8.5,1.61,150.1,-9999.0,'1111122,1111122,1111122' 
DISL,ioos:station:DISL:MHPA:1,2011-01-04T01:00:00Z,30.6671,-87.9365,8.5,1.52,132.8,-9999.0,'1111122,1111122,1111122' 
DISL,ioos:station:DISL:MHPA:1,2011-01-04T01:30:00Z,30.6671,-87.9365,8.5,1.61,131.4,-9999.0,'1111122,1111122,1111122' 
DISL,ioos:station:DISL:MHPA:1,2011-01-04T02:00:00Z,30.6671,-87.9365,8.5,1.01,115.0,-9999.0,'1111122,1111122,1111122' 
DISL,ioos:station:DISL:MHPA:1,2011-01-04T02:30:00Z,30.6671,-87.9365,8.5,0.86,80.8,-9999.0,'1111122,1111122,1111122' 
DISL,ioos:station:DISL:MHPA:1,2011-01-04T03:00:00Z,30.6671,-87.9365,8.5,0.47,345.6,-9999.0,'1111122,1111122,1111122' 
DISL,ioos:station:DISL:MHPA:1,2011-01-04T03:30:00Z,30.6671,-87.9365,8.5,0.28,87.4,-9999.0,'1111122,1111122,1111122' 
DISL,ioos:station:DISL:MHPA:1,2011-01-04T04:00:00Z,30.6671,-87.9365,8.5,1.03,19.9,-9999.0,'1111122,1111122,1111122' 
DISL,ioos:station:DISL:MHPA:1,2011-01-04T04:30:00Z,30.6671,-87.9365,8.5,0.34,88.4,-9999.0,'1111122,1111122,1111122' 
DISL,ioos:station:DISL:MHPA:1,2011-01-04T05:00:00Z,30.6671,-87.9365,8.5,0.88,17.92,-9999.0,'1111122,1111122,1111122' 
DISL,ioos:station:DISL:MHPA:1,2011-01-04T05:30:00Z,30.6671,-87.9365,8.5,1.21,35.36,-9999.0,'1111122,1111122,1111122' 
DISL,ioos:station:DISL:MHPA:1,2011-01-04T06:00:00Z,30.6671,-87.9365,8.5,1.24,43.33,-9999.0,'1111122,1111122,1111122' 
DISL,ioos:station:DISL:MHPA:1,2011-01-04T06:30:00Z,30.6671,-87.9365,8.5,0.8,37.82,-9999.0,'1111122,1111122,1111122' 
DISL,ioos:station:DISL:MHPA:1,2011-01-04T07:00:00Z,30.6671,-87.9365,8.5,1.83,10.98,-9999.0,'1111122,1111122,1111122' 
DISL,ioos:station:DISL:MHPA:1,2011-01-04T07:30:00Z,30.6671,-87.9365,8.5,1.69,18.86,-9999.0,'1111122,1111122,1111122' 
DISL,ioos:station:DISL:MHPA:1,2011-01-04T08:00:00Z,30.6671,-87.9365,8.5,1.76,19.25,-9999.0,'1111122,1111122,1111122' 
DISL,ioos:station:DISL:MHPA:1,2011-01-04T08:30:00Z,30.6671,-87.9365,8.5,2.38,10.76,-9999.0,'1111122,1111122,1111122' 
DISL,ioos:station:DISL:MHPA:1,2011-01-04T09:00:00Z,30.6671,-87.9365,8.5,1.46,17.43,-9999.0,'1111122,1111122,1111122' 
DISL,ioos:station:DISL:MHPA:1,2011-01-04T09:30:00Z,30.6671,-87.9365,8.5,1.39,8.39,-9999.0,'1111122,1111122,1111122' 
DISL,ioos:station:DISL:MHPA:1,2011-01-04T10:00:00Z,30.6671,-87.9365,8.5,0.86,45.99,-9999.0,'1111122,1111122,1111122' 
DISL,ioos:station:DISL:MHPA:1,2011-01-04T10:30:00Z,30.6671,-87.9365,8.5,0.62,42.15,-9999.0,'1111122,1111122,1111122' 
DISL,ioos:station:DISL:MHPA:1,2011-01-04T11:00:00Z,30.6671,-87.9365,8.5,1.02,11.48,-9999.0,'1111122,1111122,1111122' 
DISL,ioos:station:DISL:MHPA:1,2011-01-04T11:30:00Z,30.6671,-87.9365,8.5,0.94,19.23,-9999.0,'1111122,1111122,1111122' 
DISL,ioos:station:DISL:MHPA:1,2011-01-04T12:00:00Z,30.6671,-87.9365,8.5,0.72,33.25,-9999.0,'1111122,1111122,1111122' 
DISL,ioos:station:DISL:MHPA:1,2011-01-04T12:30:00Z,30.6671,-87.9365,8.5,1.06,10.62,-9999.0,'1111122,1111122,1111122' 
DISL,ioos:station:DISL:MHPA:1,2011-01-04T13:00:00Z,30.6671,-87.9365,8.5,1.86,6.497,-9999.0,'1111122,1111122,1111122' 
DISL,ioos:station:DISL:MHPA:1,2011-01-04T13:30:00Z,30.6671,-87.9365,8.5,1.03,20.76,-9999.0,'1111122,1111122,1111122' 
DISL,ioos:station:DISL:MHPA:1,2011-01-04T14:00:00Z,30.6671,-87.9365,8.5,1.65,358.9,-9999.0,'1111122,1111122,1111122' 
DISL,ioos:station:DISL:MHPA:1,2011-01-04T14:30:00Z,30.6671,-87.9365,8.5,1.18,7.89,-9999.0,'1111122,1111122,1111122' 
DISL,ioos:station:DISL:MHPA:1,2011-01-04T15:00:00Z,30.6671,-87.9365,8.5,0.51,39.47,-9999.0,'1111122,1111122,1111122' 
DISL,ioos:station:DISL:MHPA:1,2011-01-04T15:30:00Z,30.6671,-87.9365,8.5,0.74,13.45,-9999.0,'1111122,1111122,1111122' 
DISL,ioos:station:DISL:MHPA:1,2011-01-04T16:00:00Z,30.6671,-87.9365,8.5,1.65,4.291,-9999.0,'1111122,1111122,1111122' 
DISL,ioos:station:DISL:MHPA:1,2011-01-04T16:30:00Z,30.6671,-87.9365,8.5,1.08,22.25,-9999.0,'1111122,1111122,1111122' 
DISL,ioos:station:DISL:MHPA:1,2011-01-04T17:00:00Z,30.6671,-87.9365,8.5,1.1,334.2,-9999.0,'1111122,1111122,1111122' 
DISL,ioos:station:DISL:MHPA:1,2011-01-04T17:30:00Z,30.6671,-87.9365,8.5,0.74,343.6,-9999.0,'1111122,1111122,1111122' 
DISL,ioos:station:DISL:MHPA:1,2011-01-04T18:00:00Z,30.6671,-87.9365,8.5,1.95,225.3,-9999.0,'1111122,1111122,1111122' 
DISL,ioos:station:DISL:MHPA:1,2011-01-04T18:30:00Z,30.6671,-87.9365,8.5,1.38,215.2,-9999.0,'1111122,1111122,1111122' 
DISL,ioos:station:DISL:MHPA:1,2011-01-04T19:00:00Z,30.6671,-87.9365,8.5,2.34,226.9,-9999.0,'1111122,1111122,1111122' 
DISL,ioos:station:DISL:MHPA:1,2011-01-04T19:30:00Z,30.6671,-87.9365,8.5,2.34,218.7,-9999.0,'1111122,1111122,1111122' 
DISL,ioos:station:DISL:MHPA:1,2011-01-04T20:00:00Z,30.6671,-87.9365,8.5,2.06,200.6,-9999.0,'1111122,1111122,1111122' 
DISL,ioos:station:DISL:MHPA:1,2011-01-04T20:30:00Z,30.6671,-87.9365,8.5,2.92,188.0,-9999.0,'1111122,1111122,1111122' 
DISL,ioos:station:DISL:MHPA:1,2011-01-04T21:00:00Z,30.6671,-87.9365,8.5,3.03,190.2,-9999.0,'1111122,1111122,1111122' 
DISL,ioos:station:DISL:MHPA:1,2011-01-04T21:30:00Z,30.6671,-87.9365,8.5,1.67,207.5,-9999.0,'1111122,1111122,1111122' 
DISL,ioos:station:DISL:MHPA:1,2011-01-04T22:00:00Z,30.6671,-87.9365,8.5,3.53,200.5,-9999.0,'1111122,1111122,1111122' 
DISL,ioos:station:DISL:MHPA:1,2011-01-04T22:30:00Z,30.6671,-87.9365,8.5,2.98,188.2,-9999.0,'1111122,1111122,1111122' 
DISL,ioos:station:DISL:MHPA:1,2011-01-04T23:00:00Z,30.6671,-87.9365,8.5,2.75,202.0,-9999.0,'1111122,1111122,1111122' 
DISL,ioos:station:DISL:MHPA:1,2011-01-04T23:30:00Z,30.6671,-87.9365,8.5,2.5,173.2,-9999.0,'1111122,1111122,1111122' 
DISL,ioos:station:DISL:MHPA:1,2011-01-05T00:00:00Z,30.6671,-87.9365,8.5,1.97,160.7,-9999.0,'1111122,1111122,1111122' 
DISL,ioos:station:DISL:MHPA:1,2011-01-05T00:30:00Z,30.6671,-87.9365,8.5,1.49,148.4,-9999.0,'1111122,1111122,1111122' 
DISL,ioos:station:DISL:MHPA:1,2011-01-05T01:00:00Z,30.6671,-87.9365,8.5,0.25,122.9,-9999.0,'1111122,1111122,1111122' 
DISL,ioos:station:DISL:MHPA:1,2011-01-05T01:30:00Z,30.6671,-87.9365,8.5,1.41,135.9,-9999.0,'1111122,1111122,1111122' 
DISL,ioos:station:DISL:MHPA:1,2011-01-05T02:00:00Z,30.6671,-87.9365,8.5,1.58,133.4,-9999.0,'1111122,1111122,1111122' 
DISL,ioos:station:DISL:MHPA:1,2011-01-05T02:30:00Z,30.6671,-87.9365,8.5,0.54,91.5,-9999.0,'1111122,1111122,1111122' 
DISL,ioos:station:DISL:MHPA:1,2011-01-05T03:00:00Z,30.6671,-87.9365,8.5,0.57,99.0,-9999.0,'1111122,1111122,1111122' 
DISL,ioos:station:DISL:MHPA:1,2011-01-05T03:30:00Z,30.6671,-87.9365,8.5,0.54,107.5,-9999.0,'1111122,1111122,1111122' 
DISL,ioos:station:DISL:MHPA:1,2011-01-05T04:00:00Z,30.6671,-87.9365,8.5,1.45,110.9,-9999.0,'1111122,1111122,1111122' 
DISL,ioos:station:DISL:MHPA:1,2011-01-05T04:30:00Z,30.6671,-87.9365,8.5,0.31,10.98,-9999.0,'1111122,1111122,1111122' 
DISL,ioos:station:DISL:MHPA:1,2011-01-05T05:00:00Z,30.6671,-87.9365,8.5,0.44,26.54,-9999.0,'1111122,1111122,1111122' 
DISL,ioos:station:DISL:MHPA:1,2011-01-05T05:30:00Z,30.6671,-87.9365,8.5,0.96,84.0,-9999.0,'1111122,1111122,1111122' 
DISL,ioos:station:DISL:MHPA:1,2011-01-05T06:00:00Z,30.6671,-87.9365,8.5,1.77,106.0,-9999.0,'1111122,1111122,1111122' 
DISL,ioos:station:DISL:MHPA:1,2011-01-05T06:30:00Z,30.6671,-87.9365,8.5,2.33,119.8,-9999.0,'1111122,1111122,1111122' 
DISL,ioos:station:DISL:MHPA:1,2011-01-05T07:00:00Z,30.6671,-87.9365,8.5,3.85,116.9,-9999.0,'1111122,1111122,1111122' 
DISL,ioos:station:DISL:MHPA:1,2011-01-05T07:30:00Z,30.6671,-87.9365,8.5,2.88,122.5,-9999.0,'1111122,1111122,1111122' 
DISL,ioos:station:DISL:MHPA:1,2011-01-05T08:00:00Z,30.6671,-87.9365,8.5,1.09,91.3,-9999.0,'1111122,1111122,1111122' 
DISL,ioos:station:DISL:MHPA:1,2011-01-05T08:30:00Z,30.6671,-87.9365,8.5,2.58,127.6,-9999.0,'1111122,1111122,1111122' 
DISL,ioos:station:DISL:MHPA:1,2011-01-05T09:00:00Z,30.6671,-87.9365,8.5,1.06,130.4,-9999.0,'1111122,1111122,1111122' 
DISL,ioos:station:DISL:MHPA:1,2011-01-05T09:30:00Z,30.6671,-87.9365,8.5,1.67,106.9,-9999.0,'1111122,1111122,1111122' 
DISL,ioos:station:DISL:MHPA:1,2011-01-05T10:00:00Z,30.6671,-87.9365,8.5,1.09,127.3,-9999.0,'1111122,1111122,1111122' 
DISL,ioos:station:DISL:MHPA:1,2011-01-05T10:30:00Z,30.6671,-87.9365,8.5,2.2,107.7,-9999.0,'1111122,1111122,1111122' 
DISL,ioos:station:DISL:MHPA:1,2011-01-05T11:00:00Z,30.6671,-87.9365,8.5,1.19,60.66,-9999.0,'1111122,1111122,1111122' 